TimeCDT,TemperatureF,Dew PointF,Humidity,Sea Level PressureIn,VisibilityMPH,Wind Direction,Wind SpeedMPH,Gust SpeedMPH,PrecipitationIn,Events,Conditions,WindDirDegrees,DateUTC
12:56 AM,-9999,-9999,N/A,30.16,-9999.0,North,-9999.0,-,N/A,,Unknown,0,2013-05-25 05:56:00
1:56 AM,-9999,-9999,N/A,30.16,-9999.0,North,-9999.0,-,N/A,,Unknown,0,2013-05-25 06:56:00
2:56 AM,-9999,-9999,N/A,30.16,-9999.0,North,-9999.0,-,N/A,,Unknown,0,2013-05-25 07:56:00
3:56 AM,-9999,-9999,N/A,30.17,-9999.0,North,-9999.0,-,N/A,,Unknown,0,2013-05-25 08:56:00
4:56 AM,-9999,-9999,N/A,30.20,-9999.0,North,-9999.0,-,N/A,,Unknown,0,2013-05-25 09:56:00
5:56 AM,-9999,-9999,N/A,30.22,-9999.0,North,-9999.0,-,N/A,,Unknown,0,2013-05-25 10:56:00
6:56 AM,-9999,-9999,N/A,30.24,-9999.0,North,-9999.0,-,N/A,,Unknown,0,2013-05-25 11:56:00
7:56 AM,-9999,-9999,N/A,30.24,-9999.0,North,-9999.0,-,N/A,,Unknown,0,2013-05-25 12:56:00
8:56 AM,-9999,-9999,N/A,30.24,-9999.0,North,-9999.0,-,N/A,,Unknown,0,2013-05-25 13:56:00
9:56 AM,-9999,-9999,N/A,30.25,-9999.0,North,-9999.0,-,N/A,,Unknown,0,2013-05-25 14:56:00
10:56 AM,-9999,-9999,N/A,30.25,-9999.0,North,-9999.0,-,N/A,,Unknown,0,2013-05-25 15:56:00
11:56 AM,-9999,-9999,N/A,30.23,-9999.0,North,-9999.0,-,N/A,,Unknown,0,2013-05-25 16:56:00
12:56 PM,-9999,-9999,N/A,30.21,-9999.0,North,-9999.0,-,N/A,,Unknown,0,2013-05-25 17:56:00
1:56 PM,-9999,-9999,N/A,30.18,-9999.0,North,-9999.0,-,N/A,,Unknown,0,2013-05-25 18:56:00
2:56 PM,-9999,-9999,N/A,30.16,-9999.0,North,-9999.0,-,N/A,,Unknown,0,2013-05-25 19:56:00
3:56 PM,-9999,-9999,N/A,30.16,-9999.0,North,-9999.0,-,N/A,,Unknown,0,2013-05-25 20:56:00
4:56 PM,-9999,-9999,N/A,30.16,-9999.0,North,-9999.0,-,N/A,,Unknown,0,2013-05-25 21:56:00
5:56 PM,-9999,-9999,N/A,30.16,-9999.0,North,-9999.0,-,N/A,,Unknown,0,2013-05-25 22:56:00
6:56 PM,-9999,-9999,N/A,30.16,-9999.0,North,-9999.0,-,N/A,,Unknown,0,2013-05-25 23:56:00
7:56 PM,-9999,-9999,N/A,30.16,-9999.0,North,-9999.0,-,N/A,,Unknown,0,2013-05-26 00:56:00
8:56 PM,-9999,-9999,N/A,30.17,-9999.0,North,-9999.0,-,N/A,,Unknown,0,2013-05-26 01:56:00
9:56 PM,-9999,-9999,N/A,30.19,-9999.0,North,-9999.0,-,N/A,,Unknown,0,2013-05-26 02:56:00
10:56 PM,-9999,-9999,N/A,30.19,-9999.0,North,-9999.0,-,N/A,,Unknown,0,2013-05-26 03:56:00
11:56 PM,-9999,-9999,N/A,30.18,-9999.0,North,-9999.0,-,N/A,,Unknown,0,2013-05-26 04:56:00